EW9204 Weather Reports


Display with metric or nautical units.
time (UTC)temp
F
wind
direction
speed
MPH
gust
MPH
rain 1hr
in
rain 24hr
in
rain mn
in
humidity
%
barometer
mb
20260831231019 71 238 1.0 6.0 0.00 0.10 0.01 81 1019.5
20260831230518 71 9 1.0 6.0 0.00 0.10 0.01 81 1019.6
20260831230040 71 93 1.0 5.0 0.00 0.10 0.01 81 1019.7
20260831225518 71 221 0.0 5.0 0.00 0.10 0.01 82 1019.7
20260831225023 71 0 0.0 2.0 0.00 0.10 0.01 82 1019.6
20260831224550 71 0 0.0 6.0 0.00 0.10 0.01 82 1019.5
20260831224021 71 0 1.0 6.0 0.00 0.10 0.01 82 1019.6
20260831223521 71 243 0.0 7.0 0.00 0.10 0.01 83 1019.5
20260831223040 71 68 1.0 7.0 0.00 0.10 0.01 82 1019.5
20260831222519 71 196 2.0 5.0 0.00 0.10 0.01 83 1019.7
20260831222017 71 0 1.0 3.0 0.00 0.10 0.01 83 1019.6
20260831221549 72 68 1.0 3.0 0.00 0.10 0.01 83 1019.7
20260831221021 72 0 0.0 5.0 0.00 0.10 0.01 82 1019.7
20260831220521 72 137 1.0 5.0 0.00 0.10 0.01 82 1019.8
20260831220047 72 0 1.0 5.0 0.00 0.10 0.01 82 1019.7
20260831215523 72 238 1.0 7.0 0.00 0.10 0.01 82 1019.8
20260831215019 72 123 1.0 7.0 0.00 0.10 0.01 81 1019.8
20260831214546 72 0 2.0 7.0 0.00 0.10 0.01 81 1019.8
20260831214023 72 201 1.0 6.0 0.00 0.10 0.01 81 1019.8
20260831213524 72 226 2.0 9.0 0.00 0.10 0.01 80 1019.8
20260831213038 72 329 2.0 9.0 0.00 0.10 0.01 80 1019.8
20260831212519 72 229 3.0 8.0 0.00 0.10 0.01 79 1019.9
20260831212020 73 178 2.0 6.0 0.00 0.10 0.01 79 1019.7
20260831211551 73 225 2.0 5.0 0.00 0.10 0.01 79 1019.9
20260831211019 73 178 1.0 7.0 0.00 0.10 0.01 78 1019.9
20260831210520 73 0 2.0 7.0 0.00 0.10 0.01 77 1019.9
20260831210036 73 178 1.0 7.0 0.00 0.10 0.01 77 1020.0
20260831205517 73 153 2.0 5.0 0.00 0.10 0.01 76 1020.1
20260831205019 74 0 1.0 6.0 0.00 0.10 0.01 76 1019.9
20260831204540 74 133 2.0 6.0 0.00 0.10 0.01 75 1019.9
20260831204019 74 133 1.0 6.0 0.00 0.10 0.01 76 1019.9
20260831203519 74 214 1.0 6.0 0.00 0.10 0.01 74 1019.9
20260831203044 74 123 2.0 5.0 0.00 0.10 0.01 73 1019.9
20260831202520 74 93 1.0 5.0 0.00 0.10 0.01 73 1020.0
20260831202019 74 0 1.0 5.0 0.00 0.10 0.01 73 1020.1
20260831201543 74 0 2.0 5.0 0.00 0.10 0.01 71 1020.0
20260831201021 75 211 1.0 5.0 0.00 0.10 0.01 72 1020.2
20260831200519 75 153 1.0 4.0 0.00 0.10 0.01 73 1020.3
20260831200041 75 0 1.0 6.0 0.00 0.10 0.01 72 1020.3
20260831195520 75 205 2.0 6.0 0.00 0.10 0.01 71 1020.3
20260831195022 75 168 1.0 5.0 0.00 0.10 0.01 71 1020.3
20260831194552 75 137 0.0 5.0 0.00 0.10 0.01 73 1020.3
20260831194024 75 221 1.0 6.0 0.00 0.10 0.01 72 1020.4
20260831193523 75 189 2.0 6.0 0.00 0.10 0.01 71 1020.5
20260831193048 76 163 2.0 7.0 0.00 0.10 0.01 71 1020.6
20260831192519 76 0 2.0 7.0 0.00 0.10 0.01 69 1020.6
20260831192022 76 146 3.0 7.0 0.00 0.10 0.01 69 1020.7
20260831191547 76 232 2.0 9.0 0.00 0.10 0.01 68 1020.7
20260831191018 76 205 3.0 9.0 0.00 0.10 0.01 69 1020.8
20260831190519 76 188 1.0 5.0 0.00 0.10 0.01 69 1020.7
20260831190042 76 137 1.0 6.0 0.00 0.10 0.01 69 1020.8
20260831185519 76 68 2.0 6.0 0.00 0.10 0.01 67 1021.0
20260831185021 77 93 2.0 6.0 0.00 0.10 0.01 69 1020.9
20260831184538 77 111 2.0 6.0 0.00 0.10 0.01 65 1021.0
20260831184020 77 93 2.0 6.0 0.00 0.10 0.01 67 1021.3
20260831183520 77 9 1.0 6.0 0.00 0.10 0.01 65 1021.1
20260831183043 77 119 1.0 5.0 0.00 0.10 0.01 65 1021.1
20260831182518 77 68 2.0 5.0 0.00 0.10 0.01 63 1021.1
20260831182018 77 210 2.0 7.0 0.00 0.10 0.01 66 1021.1
20260831181537 77 61 2.0 9.0 0.00 0.10 0.01 60 1021.1
20260831181022 77 115 3.0 9.0 0.00 0.10 0.01 63 1021.1
20260831180522 77 250 2.0 8.0 0.00 0.10 0.01 61 1021.2
20260831180042 77 70 3.0 8.0 0.00 0.10 0.01 62 1021.5
20260831175519 78 26 3.0 7.0 0.00 0.10 0.01 61 1021.5
20260831175019 77 309 1.0 9.0 0.00 0.10 0.01 66 1021.4
20260831174541 77 243 2.0 9.0 0.00 0.10 0.01 63 1021.6
20260831174020 77 59 3.0 9.0 0.00 0.10 0.01 63 1021.8
20260831173518 77 146 2.0 10.0 0.00 0.10 0.01 68 1021.8
20260831173045 76 144 3.0 10.0 0.00 0.10 0.01 63 1021.6
20260831172519 76 200 3.0 9.0 0.00 0.10 0.01 64 1021.5
20260831172021 76 250 1.0 8.0 0.00 0.10 0.01 65 1021.5
20260831171538 75 68 2.0 10.0 0.00 0.10 0.01 66 1021.6
20260831171017 76 221 3.0 10.0 0.00 0.10 0.01 65 1021.5
20260831170548 76 189 2.0 9.0 0.00 0.10 0.01 64 1021.5
20260831170044 75 219 3.0 9.0 0.00 0.10 0.01 64 1021.5
20260831165523 75 215 3.0 10.0 0.00 0.10 0.01 64 1021.7
20260831165020 76 102 2.0 12.0 0.00 0.10 0.01 64 1021.9
20260831164539 76 165 3.0 12.0 0.00 0.10 0.01 64 1021.8
20260831164020 76 80 4.0 12.0 0.00 0.10 0.01 65 1021.8
20260831163518 76 51 4.0 10.0 0.00 0.10 0.01 64 1021.9
20260831163038 76 56 2.0 7.0 0.00 0.10 0.01 66 1022.0
20260831162525 75 9 1.0 10.0 0.00 0.10 0.01 67 1021.9
20260831162020 75 24 1.0 11.0 0.00 0.10 0.01 66 1021.8
20260831161543 75 171 3.0 11.0 0.00 0.10 0.01 63 1021.7
20260831161020 75 54 3.0 10.0 0.00 0.10 0.01 66 1021.8
20260831160520 75 45 2.0 9.0 0.00 0.10 0.01 65 1021.8
20260831160045 75 75 3.0 9.0 0.00 0.10 0.01 63 1021.9
20260831155518 75 225 2.0 8.0 0.00 0.10 0.01 63 1021.9
20260831155022 74 205 2.0 8.0 0.00 0.10 0.01 65 1022.2
20260831154621 74 265 2.0 8.0 0.00 0.10 0.01 64 1022.1
20260831154025 74 119 3.0 8.0 0.00 0.10 0.01 65 1022.1
20260831153520 74 178 1.0 9.0 0.00 0.10 0.01 70 1022.0
20260831153040 73 55 1.0 9.0 0.00 0.10 0.01 69 1021.8
20260831152520 73 210 3.0 10.0 0.00 0.10 0.01 66 1022.0
20260831152021 74 0 4.0 10.0 0.00 0.10 0.01 68 1022.0
20260831151550 74 123 2.0 9.0 0.00 0.10 0.01 71 1022.1
20260831151019 74 61 3.0 9.0 0.00 0.10 0.01 71 1022.1
20260831150519 74 188 4.0 9.0 0.00 0.10 0.01 79 1022.0
20260831150040 73 182 4.0 9.0 0.00 0.10 0.01 76 1022.2
20260831145517 73 218 3.0 9.0 0.00 0.10 0.01 76 1022.1
20260831145022 72 71 2.0 9.0 0.00 0.10 0.01 76 1022.2
20260831144539 73 360 1.0 8.0 0.00 0.10 0.01 79 1022.3
20260831144025 72 0 1.0 8.0 0.00 0.10 0.01 79 1022.0
20260831143521 72 173 2.0 8.0 0.00 0.10 0.01 77 1022.3
20260831143039 72 137 2.0 8.0 0.00 0.10 0.01 76 1022.3
20260831142521 72 137 2.0 10.0 0.00 0.10 0.01 77 1022.4
20260831142020 72 98 3.0 12.0 0.00 0.10 0.01 76 1022.4
20260831141540 73 219 5.0 12.0 0.00 0.10 0.01 74 1022.2
20260831141017 73 93 2.0 7.0 0.00 0.10 0.01 78 1022.2
20260831140518 73 221 2.0 7.0 0.00 0.10 0.01 77 1022.3
20260831140038 73 41 2.0 7.0 0.00 0.10 0.01 79 1022.4
20260831135518 72 119 2.0 7.0 0.00 0.10 0.01 78 1022.0
20260831135019 72 82 2.0 7.0 0.00 0.10 0.01 79 1022.0
20260831134548 71 106 2.0 7.0 0.00 0.10 0.01 81 1022.0
20260831134021 71 26 3.0 7.0 0.00 0.10 0.01 82 1021.9
20260831133519 70 69 3.0 7.0 0.00 0.10 0.01 83 1021.9
20260831133042 70 41 3.0 7.0 0.00 0.10 0.01 84 1021.9
20260831132525 69 9 3.0 7.0 0.00 0.10 0.01 86 1021.8
20260831132020 69 63 3.0 8.0 0.00 0.10 0.01 86 1021.7
20260831131545 69 34 1.0 8.0 0.00 0.10 0.01 87 1021.6
20260831131018 68 38 3.0 8.0 0.00 0.10 0.01 87 1021.5
20260831130518 68 9 2.0 8.0 0.00 0.10 0.01 88 1021.5
20260831130044 68 67 1.0 6.0 0.00 0.10 0.01 90 1021.5
20260831125525 67 78 1.0 6.0 0.00 0.10 0.01 90 1021.4
20260831125021 67 9 2.0 6.0 0.00 0.10 0.01 91 1021.3
20260831124547 66 9 1.0 4.0 0.00 0.10 0.01 91 1021.3
20260831124019 66 9 2.0 4.0 0.00 0.10 0.01 92 1021.4
20260831123518 66 61 1.0 4.0 0.00 0.10 0.01 92 1021.4
20260831123040 66 76 1.0 3.0 0.00 0.10 0.01 92 1021.6
20260831122524 66 0 0.0 6.0 0.00 0.10 0.01 93 1021.5
20260831122020 65 0 1.0 6.0 0.00 0.10 0.01 93 1021.4
20260831121547 65 38 1.0 5.0 0.00 0.10 0.01 93 1021.3
20260831121018 65 51 1.0 5.0 0.00 0.10 0.01 94 1021.1
20260831120518 65 126 1.0 4.0 0.00 0.10 0.01 94 1021.0
20260831120040 65 0 1.0 5.0 0.00 0.10 0.01 94 1021.2
20260831115528 65 78 1.0 5.0 0.00 0.10 0.01 94 1021.3
20260831115022 65 80 1.0 5.0 0.00 0.10 0.01 94 1021.1
20260831114538 65 61 1.0 4.0 0.00 0.10 0.01 94 1021.0
20260831114020 65 137 1.0 4.0 0.00 0.10 0.01 94 1021.0
20260831113519 65 265 1.0 4.0 0.00 0.10 0.01 94 1020.8
20260831113039 64 347 1.0 4.0 0.00 0.10 0.01 94 1020.8
20260831112520 64 67 1.0 3.0 0.00 0.10 0.01 94 1020.7
20260831112019 64 47 1.0 3.0 0.00 0.10 0.01 94 1020.7
20260831111540 64 9 0.0 3.0 0.00 0.10 0.01 95 1020.7
20260831111018 64 68 1.0 3.0 0.00 0.10 0.01 95 1020.7
20260831110523 64 334 0.0 2.0 0.00 0.10 0.01 95 1020.6
20260831110038 64 9 0.0 3.0 0.00 0.10 0.01 94 1020.6
20260831105521 64 119 1.0 3.0 0.00 0.10 0.01 95 1020.5
20260831105021 64 22 1.0 4.0 0.00 0.10 0.01 95 1020.4
20260831104537 64 67 1.0 4.0 0.00 0.10 0.01 95 1020.3
20260831104022 64 76 1.0 4.0 0.00 0.10 0.01 95 1020.3
20260831103517 64 93 1.0 4.0 0.00 0.10 0.01 95 1020.2
20260831103045 64 309 1.0 4.0 0.00 0.10 0.01 95 1020.2
20260831102521 64 65 0.0 2.0 0.00 0.10 0.01 95 1020.3
20260831102021 64 68 0.0 2.0 0.00 0.10 0.01 95 1020.2
20260831101540 64 9 0.0 2.0 0.00 0.10 0.01 95 1019.9
20260831101020 65 51 0.0 2.0 0.00 0.10 0.01 95 1020.0
20260831100518 65 80 1.0 2.0 0.00 0.10 0.01 95 1020.0
20260831100059 65 93 0.0 4.0 0.00 0.10 0.01 95 1020.0
20260831095517 65 0 1.0 4.0 0.00 0.10 0.01 95 1019.9
20260831095024 65 309 0.0 2.0 0.00 0.10 0.01 95 1019.9
20260831094539 65 265 0.0 2.0 0.00 0.10 0.01 95 1019.9
20260831094021 65 9 0.0 2.0 0.00 0.10 0.01 95 1020.0
20260831093521 65 34 0.0 1.0 0.00 0.10 0.01 95 1020.1
20260831093048 65 298 0.0 1.0 0.00 0.10 0.01 95 1020.1
20260831092522 65 0 0.0 2.0 0.01 0.10 0.01 95 1020.0
20260831092024 65 325 0.0 2.0 0.01 0.10 0.01 95 1020.1
20260831091540 65 9 0.0 2.0 0.01 0.10 0.01 95 1020.0
20260831091019 65 0 0.0 2.0 0.01 0.10 0.01 95 1020.1
20260831090520 65 51 0.0 2.0 0.01 0.10 0.01 95 1020.0
20260831090037 65 265 0.0 3.0 0.01 0.10 0.01 95 1020.0
20260831085518 65 0 0.0 3.0 0.01 0.10 0.01 95 1019.9
20260831085026 65 0 1.0 3.0 0.01 0.10 0.01 95 1020.0
20260831084545 65 309 1.0 3.0 0.01 0.10 0.01 95 1020.0
20260831084017 66 34 1.0 2.0 0.01 0.10 0.01 95 1019.9
20260831083516 66 309 0.0 2.0 0.01 0.10 0.01 95 1020.0
20260831083044 66 0 0.0 2.0 0.01 0.10 0.01 95 1020.0
20260831082525 66 67 0.0 2.0 0.00 0.09 0.00 95 1020.0
20260831082019 66 76 0.0 2.0 0.00 0.09 0.00 95 1020.0
20260831081539 66 0 0.0 2.0 0.00 0.09 0.00 95 1020.1
20260831081021 66 76 0.0 1.0 0.00 0.09 0.00 95 1020.0
20260831080521 66 0 0.0 1.0 0.00 0.09 0.00 95 1020.0
20260831080041 66 0 0.0 2.0 0.00 0.09 0.00 95 1020.0
20260831075521 66 9 0.0 2.0 0.00 0.09 0.00 95 1019.9
20260831075019 66 34 0.0 2.0 0.00 0.09 0.00 95 1019.8
20260831074541 66 205 0.0 2.0 0.00 0.09 0.00 95 1019.8
20260831074019 66 0 0.0 2.0 0.00 0.09 0.00 95 1019.8
20260831073521 66 47 1.0 2.0 0.00 0.09 0.00 95 1019.9
20260831073044 66 0 0.0 2.0 0.00 0.09 0.00 95 1020.0
20260831072521 66 93 0.0 1.0 0.00 0.09 0.00 95 1019.9
20260831072020 66 0 0.0 2.0 0.00 0.09 0.00 95 1019.8
20260831071557 66 162 0.0 2.0 0.00 0.09 0.00 95 1019.8
20260831071019 66 64 0.0 2.0 0.00 0.09 0.00 95 1019.9
20260831070524 66 0 1.0 2.0 0.00 0.09 0.00 94 1020.0
20260831070039 66 0 0.0 2.0 0.00 0.09 0.00 94 1019.9
20260831065519 66 9 0.0 3.0 0.00 0.09 0.00 94 1020.0
20260831065021 66 51 0.0 3.0 0.00 0.09 0.00 94 1019.9
20260831064539 66 51 1.0 3.0 0.00 0.09 0.00 94 1020.0
20260831064019 66 59 0.0 2.0 0.00 0.09 0.00 94 1020.0
20260831063517 66 0 0.0 2.0 0.00 0.09 0.00 94 1020.0
20260831063040 67 51 0.0 3.0 0.00 0.09 0.00 94 1020.0
20260831062524 67 22 0.0 3.0 0.00 0.09 0.00 94 1020.0
20260831062022 67 46 1.0 3.0 0.00 0.09 0.00 94 1019.9
20260831061540 67 0 0.0 2.0 0.00 0.09 0.00 94 1019.8
20260831061022 67 51 0.0 3.0 0.00 0.09 0.00 94 1019.8
20260831060521 67 61 0.0 3.0 0.00 0.09 0.00 94 1019.9
20260831060049 67 68 1.0 3.0 0.00 0.09 0.00 94 1019.9
20260831055525 67 38 1.0 3.0 0.00 0.09 0.00 93 1019.8
20260831055019 67 137 0.0 3.0 0.00 0.09 0.00 93 1019.7
20260831054541 67 34 0.0 2.0 0.00 0.09 0.00 93 1019.6
20260831054018 67 0 1.0 2.0 0.00 0.09 0.00 92 1019.6
20260831053521 68 309 0.0 2.0 0.00 0.09 0.00 92 1019.7
20260831053048 68 265 0.0 2.0 0.00 0.09 0.00 92 1019.8
20260831052518 68 0 0.0 3.0 0.00 0.09 0.00 92 1019.7
20260831052018 68 0 1.0 4.0 0.00 0.09 0.00 92 1019.6
20260831051541 68 341 1.0 4.0 0.00 0.09 0.00 92 1019.7
20260831051020 68 51 1.0 5.0 0.00 0.09 0.00 92 1019.7
20260831050518 68 319 1.0 5.0 0.00 0.09 0.00 92 1019.7
20260831050041 68 0 2.0 6.0 0.00 0.09 0.00 92 1019.7
20260831045521 68 334 2.0 6.0 0.00 0.09 0.00 93 1019.7
20260831045020 68 22 2.0 6.0 0.00 0.09 0.00 93 1019.8
20260831044546 68 334 1.0 4.0 0.00 0.09 0.00 93 1019.7
20260831044023 68 30 1.0 5.0 0.00 0.09 0.00 93 1019.7
20260831043518 68 0 1.0 5.0 0.00 0.09 0.00 93 1019.5
20260831043045 68 67 1.0 4.0 0.00 0.09 0.00 93 1019.6
20260831042518 68 325 1.0 3.0 0.00 0.09 0.00 93 1019.5
20260831042018 68 38 0.0 3.0 0.00 0.09 0.00 93 1019.4
20260831041541 69 336 1.0 4.0 0.00 0.09 0.00 93 1019.5
20260831041026 69 9 0.0 4.0 0.00 0.09 0.00 93 1019.6
20260831040521 69 0 0.0 3.0 0.00 0.09 0.00 93 1019.5
20260831040040 69 9 1.0 3.0 0.00 0.09 0.00 93 1019.6
20260831035517 69 111 0.0 3.0 0.00 0.09 0.09 93 1019.6
20260831035019 69 257 0.0 3.0 0.00 0.09 0.09 93 1019.5
20260831034540 69 51 0.0 3.0 0.00 0.09 0.09 93 1019.5
20260831034019 69 0 0.0 3.0 0.00 0.09 0.09 93 1019.5
20260831033516 69 9 1.0 3.0 0.00 0.09 0.09 93 1019.5
20260831033046 69 0 0.0 3.0 0.00 0.09 0.09 93 1019.5
20260831032518 70 51 0.0 3.0 0.00 0.09 0.09 93 1019.5
20260831032022 70 9 0.0 3.0 0.00 0.09 0.09 93 1019.7
20260831031541 70 301 0.0 5.0 0.00 0.09 0.09 93 1019.8
20260831031020 70 279 2.0 5.0 0.00 0.09 0.09 93 1019.9
20260831030520 70 302 1.0 5.0 0.01 0.09 0.09 94 1020.2
20260831030041 70 309 1.0 6.0 0.01 0.09 0.09 94 1020.2
20260831025521 70 316 2.0 6.0 0.01 0.09 0.09 94 1020.2
20260831025021 70 9 1.0 2.0 0.01 0.09 0.09 94 1020.1
20260831024542 70 19 1.0 2.0 0.01 0.09 0.09 94 1020.2
20260831024021 70 0 1.0 2.0 0.01 0.09 0.09 94 1020.2
20260831023519 70 0 0.0 2.0 0.01 0.09 0.09 94 1020.1
20260831023042 70 0 0.0 2.0 0.02 0.09 0.09 94 1020.1
20260831022516 70 9 0.0 2.0 0.02 0.09 0.09 94 1020.1
20260831022019 71 0 0.0 2.0 0.02 0.09 0.09 94 1020.1
20260831021545 71 338 1.0 3.0 0.03 0.09 0.09 93 1020.2
20260831021022 71 9 1.0 3.0 0.03 0.09 0.09 93 1020.2
20260831020522 71 178 1.0 2.0 0.03 0.08 0.08 93 1020.2
20260831020100 71 309 0.0 3.0 0.03 0.08 0.08 93 1020.3
20260831015522 71 0 0.0 3.0 0.04 0.08 0.08 93 1020.2
20260831015020 71 165 1.0 3.0 0.04 0.08 0.08 93 1020.2
20260831014539 71 162 0.0 2.0 0.05 0.08 0.08 93 1020.1
20260831014019 71 9 0.0 2.0 0.05 0.08 0.08 93 1020.0
20260831013519 71 0 0.0 1.0 0.05 0.07 0.07 93 1020.0
20260831013042 71 0 0.0 2.0 0.05 0.07 0.07 93 1019.9
20260831012521 71 360 0.0 2.0 0.05 0.07 0.07 93 1019.9
20260831012019 71 0 0.0 2.0 0.05 0.07 0.07 93 1019.9
20260831011540 71 0 0.0 2.0 0.05 0.06 0.06 92 1019.9
20260831011018 71 71 0.0 2.0 0.05 0.06 0.06 92 1019.9
20260831010518 72 0 0.0 2.0 0.05 0.05 0.05 92 1019.8
20260831010042 72 34 0.0 2.0 0.05 0.05 0.05 92 1019.8
20260831005519 72 9 0.0 2.0 0.04 0.04 0.04 92 1019.8
20260831005019 72 0 0.0 2.0 0.04 0.04 0.04 92 1019.7
20260831004546 72 0 0.0 2.0 0.03 0.03 0.03 91 1019.6
20260831004015 72 153 0.0 2.0 0.03 0.03 0.03 91 1019.6
20260831003516 72 137 0.0 2.0 0.02 0.02 0.02 91 1019.6
20260831003041 72 0 0.0 3.0 0.02 0.02 0.02 90 1019.6
20260831002520 73 334 0.0 3.0 0.02 0.02 0.02 90 1019.5
20260831002024 73 309 0.0 3.0 0.02 0.02 0.02 90 1019.5
20260831001548 73 319 0.0 3.0 0.01 0.01 0.01 89 1019.4
20260831001019 73 238 0.0 2.0 0.01 0.01 0.01 89 1019.4
20260831000517 73 0 0.0 2.0 0.00 0.00 0.00 88 1019.2
20260831000041 73 0 0.0 2.0 0.00 0.00 0.00 88 1019.2
20260830235517 74 0 0.0 2.0 0.00 0.00 0.00 87 1019.2
20260830235021 74 0 0.0 2.0 0.00 0.00 0.00 87 1019.3
20260830234545 74 0 0.0 3.0 0.00 0.00 0.00 86 1019.1
20260830234019 74 67 0.0 3.0 0.00 0.00 0.00 85 1019.0
20260830233520 74 162 0.0 3.0 0.00 0.00 0.00 85 1018.9
20260830233041 74 0 0.0 2.0 0.00 0.00 0.00 84 1018.8
20260830232519 75 51 0.0 2.0 0.00 0.00 0.00 84 1018.8
20260830232024 75 0 0.0 2.0 0.00 0.00 0.00 84 1018.8
20260830231539 75 0 0.0 2.0 0.00 0.00 0.00 83 1018.8